Station Historical Data
Daily Summary for May 15, 2012 Units:  Metric    English   Both
« Previous Day
Next Day »
Daily Weekly Monthly Yearly Custom
  High: Low: Average:
Temperature: 25.2 °C 15.3 °C 20.1 °C
Dew Point: 17.5 °C 14.1 °C 15.5 °C
Humidity: 94% 51% 77%
Wind Speed: 14.5km/h 0km/h 3.9km/h
Wind Gust: 19.3km/h - -
Wind- - South
Pressure: 1015.8 hPa 1013.4 hPa -
Precipitation: 0 mm    
Historical Graphs
 
 
Tabular Data for May 15, 2012
Time Temperature Dew Point Pressure Wind Wind Speed Wind Gust Humidity Rainfall Rate (Hourly) Conditions
00:00 16.9 °C 15.7 °C 1014.8 hPa North 1.6 km/h 3.2 km/h 93% 0 mm
00:05 16.9 °C 15.7 °C 1014.8 hPa North 3.2 km/h 3.2 km/h 93% 0 mm
00:10 16.9 °C 15.8 °C 1014.8 hPa North 1.6 km/h 4.8 km/h 93% 0 mm
00:15 16.9 °C 15.8 °C 1014.8 hPa North 1.6 km/h 3.2 km/h 93% 0 mm
00:21 16.9 °C 15.8 °C 1014.8 hPa NNE 1.6 km/h 3.2 km/h 93% 0 mm
00:26 16.9 °C 15.8 °C 1014.8 hPa North 4.8 km/h 4.8 km/h 93% 0 mm
00:31 16.9 °C 15.8 °C 1014.4 hPa North 3.2 km/h 6.4 km/h 93% 0 mm
00:36 16.9 °C 15.8 °C 1014.4 hPa North 6.4 km/h 6.4 km/h 93% 0 mm
00:41 16.9 °C 15.8 °C 1014.4 hPa NE 3.2 km/h 6.4 km/h 93% 0 mm
00:46 16.9 °C 15.7 °C 1014.4 hPa NNE 1.6 km/h 3.2 km/h 93% 0 mm
00:51 16.9 °C 15.7 °C 1014.4 hPa NNW 1.6 km/h 6.4 km/h 93% 0 mm
00:56 16.9 °C 15.7 °C 1014.8 hPa North 3.2 km/h 4.8 km/h 93% 0 mm
01:01 16.9 °C 15.7 °C 1014.4 hPa NNW 3.2 km/h 4.8 km/h 93% 0 mm
01:06 16.9 °C 15.7 °C 1014.4 hPa NNE 3.2 km/h 6.4 km/h 93% 0 mm
01:11 16.9 °C 15.8 °C 1014.4 hPa NNE 1.6 km/h 3.2 km/h 93% 0 mm
01:16 16.9 °C 15.8 °C 1014.4 hPa NE 3.2 km/h 6.4 km/h 93% 0 mm
01:21 17 °C 15.8 °C 1014.4 hPa NNW 1.6 km/h 6.4 km/h 93% 0 mm
01:26 17 °C 15.8 °C 1014.4 hPa NNE 3.2 km/h 4.8 km/h 93% 0 mm
01:31 17.1 °C 15.9 °C 1014.4 hPa NNE 3.2 km/h 3.2 km/h 93% 0 mm
01:36 17.1 °C 15.9 °C 1014.4 hPa North 1.6 km/h 4.8 km/h 93% 0 mm
01:41 17.1 °C 16 °C 1014.4 hPa NE 3.2 km/h 4.8 km/h 93% 0 mm
01:46 17.1 °C 16 °C 1014.4 hPa NNE 3.2 km/h 4.8 km/h 93% 0 mm
01:51 17.1 °C 16 °C 1014.1 hPa North 6.4 km/h 6.4 km/h 93% 0 mm
01:56 17.1 °C 16 °C 1014.1 hPa NNE 3.2 km/h 3.2 km/h 93% 0 mm
02:01 17.1 °C 16 °C 1014.1 hPa NNE 3.2 km/h 4.8 km/h 93% 0 mm
02:06 17.1 °C 16 °C 1014.1 hPa North 1.6 km/h 4.8 km/h 93% 0 mm
02:11 17.1 °C 15.9 °C 1014.1 hPa NNW 1.6 km/h 3.2 km/h 93% 0 mm
02:16 17 °C 15.8 °C 1014.1 hPa NNW 3.2 km/h 3.2 km/h 93% 0 mm
02:21 17 °C 15.8 °C 1014.1 hPa NNE 1.6 km/h 4.8 km/h 93% 0 mm
02:26 17 °C 15.8 °C 1014.1 hPa NNE 1.6 km/h 3.2 km/h 93% 0 mm
02:31 17 °C 15.8 °C 1014.1 hPa NNW 3.2 km/h 3.2 km/h 93% 0 mm
02:36 17 °C 15.8 °C 1014.1 hPa North 1.6 km/h 3.2 km/h 93% 0 mm
02:41 17 °C 15.8 °C 1014.1 hPa NNE 1.6 km/h 3.2 km/h 93% 0 mm
02:46 17 °C 15.8 °C 1014.1 hPa NNE 3.2 km/h 3.2 km/h 93% 0 mm
02:51 17.1 °C 15.9 °C 1013.8 hPa NNE 3.2 km/h 6.4 km/h 93% 0 mm
02:56 17.1 °C 16 °C 1013.8 hPa NE 4.8 km/h 4.8 km/h 93% 0 mm
03:01 17.1 °C 16 °C 1013.8 hPa Calm   3.2 km/h 93% 0 mm
03:06 17.1 °C 16 °C 1013.8 hPa NNW 1.6 km/h 3.2 km/h 93% 0 mm
03:11 17.1 °C 16 °C 1013.8 hPa NNW 3.2 km/h 3.2 km/h 93% 0 mm
03:16 17.1 °C 15.9 °C 1013.8 hPa NNW 1.6 km/h 4.8 km/h 93% 0 mm
03:21 17 °C 15.8 °C 1013.4 hPa NNW 1.6 km/h 3.2 km/h 93% 0 mm
03:26 16.9 °C 15.8 °C 1013.4 hPa Calm   1.6 km/h 93% 0 mm
03:31 16.9 °C 15.7 °C 1013.4 hPa North 1.6 km/h 3.2 km/h 93% 0 mm
03:37 16.9 °C 15.7 °C 1013.4 hPa North 1.6 km/h 1.6 km/h 93% 0 mm
03:42 16.8 °C 15.7 °C 1013.4 hPa NNW 4.8 km/h 4.8 km/h 93% 0 mm
03:47 16.7 °C 15.6 °C 1013.4 hPa NNW 3.2 km/h 4.8 km/h 93% 0 mm
03:52 16.6 °C 15.5 °C 1013.4 hPa NNW 4.8 km/h 4.8 km/h 93% 0 mm
03:57 16.6 °C 15.4 °C 1013.4 hPa NNW 3.2 km/h 4.8 km/h 93% 0 mm
04:02 16.5 °C 15.4 °C 1013.4 hPa NNW 1.6 km/h 4.8 km/h 93% 0 mm
04:07 16.4 °C 15.3 °C 1013.4 hPa NNW 3.2 km/h 4.8 km/h 93% 0 mm
04:12 16.4 °C 15.3 °C 1013.4 hPa NNW 3.2 km/h 3.2 km/h 93% 0 mm
04:17 16.3 °C 15.4 °C 1013.4 hPa NNW 4.8 km/h 4.8 km/h 94% 0 mm
04:22 16.3 °C 15.4 °C 1013.4 hPa NW 3.2 km/h 4.8 km/h 94% 0 mm
04:27 16.3 °C 15.4 °C 1013.4 hPa NW 3.2 km/h 4.8 km/h 94% 0 mm
04:32 16.3 °C 15.4 °C 1013.4 hPa NNW 3.2 km/h 3.2 km/h 94% 0 mm
04:37 16.3 °C 15.3 °C 1013.4 hPa NW 1.6 km/h 1.6 km/h 94% 0 mm
04:42 16.3 °C 15.3 °C 1013.4 hPa Calm   1.6 km/h 94% 0 mm
04:48 16.3 °C 15.3 °C 1013.4 hPa Calm   1.6 km/h 94% 0 mm
04:53 16.3 °C 15.3 °C 1013.4 hPa Calm     94% 0 mm
04:58 16.3 °C 15.3 °C 1013.8 hPa NNW 1.6 km/h 3.2 km/h 94% 0 mm
05:03 16.3 °C 15.3 °C 1013.8 hPa Calm   1.6 km/h 94% 0 mm
05:08 16.3 °C 15.3 °C 1013.8 hPa Calm   1.6 km/h 94% 0 mm
05:13 16.3 °C 15.3 °C 1013.8 hPa Calm   1.6 km/h 94% 0 mm
05:18 16.2 °C 15.3 °C 1013.8 hPa North 1.6 km/h 1.6 km/h 94% 0 mm
05:23 16.2 °C 15.3 °C 1013.8 hPa North 3.2 km/h 3.2 km/h 94% 0 mm
05:28 16.2 °C 15.2 °C 1013.8 hPa NNW 3.2 km/h 3.2 km/h 94% 0 mm
05:33 16.1 °C 15.2 °C 1013.8 hPa North 1.6 km/h 3.2 km/h 94% 0 mm
05:38 16.1 °C 15.1 °C 1013.8 hPa NNW 3.2 km/h 4.8 km/h 94% 0 mm
05:43 16 °C 15.1 °C 1013.8 hPa North 3.2 km/h 4.8 km/h 94% 0 mm
05:48 15.9 °C 15 °C 1013.8 hPa North 1.6 km/h 4.8 km/h 94% 0 mm
05:53 15.9 °C 15 °C 1013.8 hPa NNW 3.2 km/h 3.2 km/h 94% 0 mm
05:58 15.9 °C 14.9 °C 1013.8 hPa NNW 3.2 km/h 4.8 km/h 94% 0 mm
06:03 15.9 °C 14.9 °C 1013.8 hPa NNW 3.2 km/h 4.8 km/h 94% 0 mm
06:08 15.8 °C 14.9 °C 1013.8 hPa North 1.6 km/h 3.2 km/h 94% 0 mm
06:13 15.8 °C 14.9 °C 1013.8 hPa North 3.2 km/h 6.4 km/h 94% 0 mm
06:18 15.8 °C 14.9 °C 1013.8 hPa NE 3.2 km/h 4.8 km/h 94% 0 mm
06:23 15.8 °C 14.9 °C 1013.8 hPa NNE 1.6 km/h 4.8 km/h 94% 0 mm
06:29 15.8 °C 14.8 °C 1013.8 hPa NNE 3.2 km/h 4.8 km/h 94% 0 mm
06:34 15.8 °C 14.8 °C 1013.8 hPa NE 1.6 km/h 3.2 km/h 94% 0 mm
06:39 15.7 °C 14.8 °C 1013.8 hPa North 1.6 km/h 4.8 km/h 94% 0 mm
06:44 15.7 °C 14.8 °C 1014.1 hPa Calm   3.2 km/h 94% 0 mm
06:49 15.6 °C 14.7 °C 1014.1 hPa NNE 1.6 km/h 1.6 km/h 94% 0 mm
06:54 15.6 °C 14.7 °C 1014.1 hPa NNE 1.6 km/h 3.2 km/h 94% 0 mm
06:59 15.6 °C 14.6 °C 1014.1 hPa Calm   1.6 km/h 94% 0 mm
07:04 15.6 °C 14.6 °C 1014.1 hPa NNE 1.6 km/h 1.6 km/h 94% 0 mm
07:09 15.5 °C 14.6 °C 1014.1 hPa NNE 1.6 km/h 3.2 km/h 94% 0 mm
07:14 15.5 °C 14.6 °C 1014.4 hPa North 3.2 km/h 3.2 km/h 94% 0 mm
07:19 15.3 °C 14.4 °C 1014.4 hPa North 1.6 km/h 3.2 km/h 94% 0 mm
07:24 15.3 °C 14.4 °C 1014.4 hPa North 3.2 km/h 4.8 km/h 94% 0 mm
07:29 15.3 °C 14.4 °C 1014.4 hPa North 3.2 km/h 3.2 km/h 94% 0 mm
07:34 15.4 °C 14.4 °C 1014.4 hPa NE 3.2 km/h 3.2 km/h 94% 0 mm
07:39 15.5 °C 14.6 °C 1014.4 hPa Calm   3.2 km/h 94% 0 mm
07:44 15.5 °C 14.6 °C 1014.4 hPa NNW 3.2 km/h 3.2 km/h 94% 0 mm
07:49 15.5 °C 14.6 °C 1014.4 hPa NNW 1.6 km/h 4.8 km/h 94% 0 mm
07:54 15.6 °C 14.7 °C 1014.8 hPa North 3.2 km/h 3.2 km/h 94% 0 mm
07:59 15.8 °C 14.9 °C 1014.8 hPa Calm   3.2 km/h 94% 0 mm
08:04 16.1 °C 15.2 °C 1014.8 hPa NNE 1.6 km/h 1.6 km/h 94% 0 mm
08:09 16.3 °C 15.4 °C 1014.8 hPa North 3.2 km/h 4.8 km/h 94% 0 mm
08:14 16.6 °C 15.7 °C 1014.8 hPa NNW 3.2 km/h 6.4 km/h 94% 0 mm
08:19 16.8 °C 15.9 °C 1014.8 hPa NE 4.8 km/h 8 km/h 94% 0 mm
08:24 17.2 °C 16.2 °C 1014.8 hPa North 6.4 km/h 9.7 km/h 94% 0 mm
08:29 17.3 °C 16.1 °C 1014.8 hPa NNE 4.8 km/h 9.7 km/h 93% 0 mm
08:34 17.3 °C 16.2 °C 1014.8 hPa North 4.8 km/h 9.7 km/h 93% 0 mm
08:39 17.4 °C 16.3 °C 1015.1 hPa NE 4.8 km/h 6.4 km/h 93% 0 mm
08:44 17.7 °C 16.4 °C 1015.1 hPa NE 3.2 km/h 6.4 km/h 92% 0 mm
08:49 18.1 °C 16.6 °C 1015.1 hPa North 4.8 km/h 9.7 km/h 91% 0 mm
08:54 18.3 °C 16.6 °C 1015.1 hPa North 3.2 km/h 11.3 km/h 90% 0 mm
08:59 18.4 °C 16.6 °C 1015.1 hPa NNE 3.2 km/h 11.3 km/h 89% 0 mm
09:04 18.7 °C 16.8 °C 1015.1 hPa North 6.4 km/h 8 km/h 89% 0 mm
09:09 18.8 °C 16.6 °C 1015.1 hPa NW 3.2 km/h 11.3 km/h 87% 0 mm
09:14 18.9 °C 16.7 °C 1015.5 hPa NE 8 km/h 8 km/h 87% 0 mm
09:19 18.9 °C 16.9 °C 1015.1 hPa NE 3.2 km/h 8 km/h 88% 0 mm
09:25 18.9 °C 16.5 °C 1015.1 hPa NNE 9.7 km/h 9.7 km/h 86% 0 mm
09:30 18.9 °C 16.7 °C 1015.5 hPa NE 4.8 km/h 8 km/h 87% 0 mm
09:35 18.8 °C 16.6 °C 1015.5 hPa North 4.8 km/h 9.7 km/h 87% 0 mm
09:40 19 °C 16.8 °C 1015.5 hPa North 1.6 km/h 11.3 km/h 87% 0 mm
09:45 19.3 °C 16.9 °C 1015.5 hPa NNE 6.4 km/h 8 km/h 86% 0 mm
09:50 19.6 °C 16.8 °C 1015.5 hPa NNE 8 km/h 11.3 km/h 84% 0 mm
09:55 19.8 °C 17.1 °C 1015.8 hPa NW 1.6 km/h 8 km/h 84% 0 mm
10:00 20.1 °C 17.3 °C 1015.8 hPa East 6.4 km/h 8 km/h 84% 0 mm
10:05 20.2 °C 17 °C 1015.8 hPa ENE 3.2 km/h 8 km/h 82% 0 mm
10:10 20.5 °C 17.5 °C 1015.8 hPa NNE 6.4 km/h 9.7 km/h 83% 0 mm
10:15 20.6 °C 16.8 °C 1015.8 hPa NNW 6.4 km/h 9.7 km/h 79% 0 mm
10:20 20.4 °C 16.5 °C 1015.8 hPa NE 4.8 km/h 12.9 km/h 78% 0 mm
10:25 20.3 °C 16.5 °C 1015.8 hPa NNE 6.4 km/h 11.3 km/h 79% 0 mm
10:30 20.6 °C 16.8 °C 1015.8 hPa NE 3.2 km/h 9.7 km/h 79% 0 mm
10:35 20.7 °C 16.3 °C 1015.8 hPa NNW 14.5 km/h 14.5 km/h 76% 0 mm
10:40 20.8 °C 16.6 °C 1015.8 hPa NE 6.4 km/h 8 km/h 77% 0 mm
10:45 21.2 °C 16.3 °C 1015.8 hPa NE 8 km/h 8 km/h 74% 0 mm
10:50 21.2 °C 16.6 °C 1015.8 hPa North 14.5 km/h 14.5 km/h 75% 0 mm
10:55 21.3 °C 16.3 °C 1015.8 hPa NNE 4.8 km/h 12.9 km/h 73% 0 mm
11:00 21.5 °C 16.4 °C 1015.8 hPa NNW 6.4 km/h 9.7 km/h 73% 0 mm
11:05 21.7 °C 16.4 °C 1015.8 hPa NW 1.6 km/h 11.3 km/h 72% 0 mm
11:10 21.8 °C 17 °C 1015.8 hPa North 4.8 km/h 9.7 km/h 74% 0 mm
11:15 21.6 °C 16.1 °C 1015.8 hPa North 8 km/h 12.9 km/h 71% 0 mm
11:20 21.2 °C 16 °C 1015.8 hPa North 3.2 km/h 8 km/h 72% 0 mm
11:26 21.5 °C 16.2 °C 1015.8 hPa NW 4.8 km/h 8 km/h 72% 0 mm
11:31 21.8 °C 15.8 °C 1015.8 hPa SE 3.2 km/h 8 km/h 69% 0 mm
11:36 21.9 °C 15.7 °C 1015.8 hPa NE 9.7 km/h 14.5 km/h 68% 0 mm
11:41 22 °C 15.6 °C 1015.8 hPa NE 8 km/h 11.3 km/h 67% 0 mm
11:46 22.3 °C 16.4 °C 1015.8 hPa ENE 8 km/h 11.3 km/h 69% 0 mm
11:51 22.6 °C 15.7 °C 1015.8 hPa ENE 6.4 km/h 11.3 km/h 65% 0 mm
11:56 22.3 °C 16.2 °C 1015.8 hPa NW 9.7 km/h 11.3 km/h 68% 0 mm
12:01 22.5 °C 15.8 °C 1015.8 hPa WNW 6.4 km/h 12.9 km/h 66% 0 mm
12:06 22.4 °C 15.9 °C 1015.8 hPa NNW 11.3 km/h 14.5 km/h 67% 0 mm
12:11 22.3 °C 15.4 °C 1015.8 hPa NE 6.4 km/h 9.7 km/h 65% 0 mm
12:16 22.6 °C 15.9 °C 1015.8 hPa North 11.3 km/h 17.7 km/h 66% 0 mm
12:21 22.6 °C 15.2 °C 1015.8 hPa East 4.8 km/h 12.9 km/h 63% 0 mm
12:26 22.7 °C 15.8 °C 1015.8 hPa NW 6.4 km/h 17.7 km/h 65% 0 mm
12:31 22.4 °C 15.6 °C 1015.8 hPa North 6.4 km/h 14.5 km/h 65% 0 mm
12:36 22.6 °C 15.2 °C 1015.8 hPa NE 3.2 km/h 12.9 km/h 63% 0 mm
12:41 22.7 °C 16.3 °C 1015.8 hPa NNE 14.5 km/h 14.5 km/h 67% 0 mm
12:46 23.1 °C 16.2 °C 1015.5 hPa NNE 8 km/h 12.9 km/h 65% 0 mm
12:51 23.2 °C 16.1 °C 1015.5 hPa NE 4.8 km/h 9.7 km/h 64% 0 mm
12:56 23.2 °C 15.3 °C 1015.5 hPa NE 4.8 km/h 12.9 km/h 61% 0 mm
13:01 23.1 °C 15.2 °C 1015.5 hPa NNE 3.2 km/h 14.5 km/h 61% 0 mm
13:06 23.2 °C 16.2 °C 1015.5 hPa NNE 8 km/h 12.9 km/h 65% 0 mm
13:11 23.2 °C 16.8 °C 1015.5 hPa NW 3.2 km/h 14.5 km/h 67% 0 mm
13:16 23.4 °C 15.9 °C 1015.5 hPa NE 11.3 km/h 14.5 km/h 63% 0 mm
13:21 23.4 °C 15.7 °C 1015.5 hPa North 3.2 km/h 9.7 km/h 62% 0 mm
13:26 23.6 °C 16.2 °C 1015.1 hPa North 3.2 km/h 9.7 km/h 63% 0 mm
13:31 23.7 °C 15.9 °C 1015.1 hPa NE 8 km/h 12.9 km/h 62% 0 mm
13:36 23.7 °C 16.4 °C 1015.5 hPa NNW 6.4 km/h 9.7 km/h 64% 0 mm
13:41 23.7 °C 16.8 °C 1015.1 hPa North 4.8 km/h 9.7 km/h 65% 0 mm
13:46 23.8 °C 16.4 °C 1015.1 hPa North 6.4 km/h 14.5 km/h 63% 0 mm
13:52 23.6 °C 15.8 °C 1015.1 hPa NE 3.2 km/h 12.9 km/h 62% 0 mm
13:56 23.9 °C 16.4 °C 1015.1 hPa North 12.9 km/h 12.9 km/h 63% 0 mm
14:02 24.3 °C 16.6 °C 1015.1 hPa NNW 9.7 km/h 9.7 km/h 62% 0 mm
14:07 24.2 °C 15.2 °C 1015.1 hPa NNW 8 km/h 12.9 km/h 57% 0 mm
14:12 24.1 °C 15.8 °C 1015.1 hPa NNE 6.4 km/h 12.9 km/h 60% 0 mm
14:17 23.9 °C 15.4 °C 1015.1 hPa NE 4.8 km/h 12.9 km/h 59% 0 mm
14:22 24.1 °C 16.1 °C 1015.1 hPa NNW 8 km/h 8 km/h 61% 0 mm
14:27 24.1 °C 15.3 °C 1015.1 hPa North 6.4 km/h 14.5 km/h 58% 0 mm
14:32 24.1 °C 15.6 °C 1015.1 hPa NE 4.8 km/h 11.3 km/h 59% 0 mm
14:37 24.1 °C 14.4 °C 1015.1 hPa North 3.2 km/h 16.1 km/h 55% 0 mm
14:42 24.1 °C 15.6 °C 1015.1 hPa NE 3.2 km/h 9.7 km/h 59% 0 mm
14:47 24.2 °C 15.4 °C 1015.1 hPa North 9.7 km/h 12.9 km/h 58% 0 mm
14:52 24 °C 14.9 °C 1014.8 hPa NW 6.4 km/h 11.3 km/h 57% 0 mm
14:57 24.1 °C 15.6 °C 1014.8 hPa NNE 4.8 km/h 6.4 km/h 59% 0 mm
15:02 24.1 °C 15.3 °C 1014.8 hPa NNE 3.2 km/h 6.4 km/h 58% 0 mm
15:07 23.9 °C 15.4 °C 1014.8 hPa North 6.4 km/h 11.3 km/h 59% 0 mm
15:12 23.8 °C 15.6 °C 1014.8 hPa NW 1.6 km/h 8 km/h 60% 0 mm
15:17 24.1 °C 15.3 °C 1014.4 hPa NNW 1.6 km/h 4.8 km/h 58% 0 mm
15:22 24.1 °C 16.1 °C 1014.4 hPa North 6.4 km/h 9.7 km/h 61% 0 mm
15:27 23.9 °C 15.1 °C 1014.4 hPa NNW 8 km/h 11.3 km/h 58% 0 mm
15:32 23.9 °C 15.4 °C 1014.4 hPa NNE 8 km/h 8 km/h 59% 0 mm
15:37 24 °C 15.8 °C 1014.4 hPa NW 6.4 km/h 11.3 km/h 60% 0 mm
15:42 23.9 °C 16.2 °C 1014.4 hPa North 3.2 km/h 11.3 km/h 62% 0 mm
15:48 24.1 °C 16.6 °C 1014.1 hPa NW 3.2 km/h 8 km/h 63% 0 mm
15:52 24.1 °C 15.9 °C 1014.4 hPa NE 14.5 km/h 17.7 km/h 60% 0 mm
15:58 24.1 °C 16.1 °C 1014.4 hPa North 8 km/h 12.9 km/h 61% 0 mm
16:03 24 °C 15.8 °C 1014.1 hPa NNW 9.7 km/h 14.5 km/h 60% 0 mm
16:08 24.3 °C 16.3 °C 1014.1 hPa NNW 14.5 km/h 16.1 km/h 61% 0 mm
16:13 24.6 °C 16.3 °C 1014.1 hPa NW 4.8 km/h 8 km/h 60% 0 mm
16:18 24.7 °C 15.9 °C 1014.1 hPa NNW 8 km/h 12.9 km/h 58% 0 mm
16:23 24.8 °C 15.7 °C 1014.1 hPa NNE 8 km/h 19.3 km/h 57% 0 mm
16:28 24.7 °C 15.9 °C 1013.8 hPa North 4.8 km/h 11.3 km/h 58% 0 mm
16:33 25 °C 16.7 °C 1013.8 hPa North 8 km/h 11.3 km/h 60% 0 mm
16:38 24.9 °C 15.8 °C 1013.8 hPa NW 3.2 km/h 12.9 km/h 57% 0 mm
16:43 25.1 °C 16.8 °C 1013.8 hPa ENE 11.3 km/h 11.3 km/h 60% 0 mm
16:48 24.8 °C 14.9 °C 1013.8 hPa NNE 11.3 km/h 16.1 km/h 54% 0 mm
16:53 24.7 °C 15.6 °C 1013.8 hPa NNW 6.4 km/h 9.7 km/h 57% 0 mm
16:58 24.9 °C 15.2 °C 1013.8 hPa NNE 8 km/h 12.9 km/h 55% 0 mm
17:03 25.1 °C 14.6 °C 1013.8 hPa NNW 14.5 km/h 14.5 km/h 52% 0 mm
17:08 25 °C 15.3 °C 1013.8 hPa ENE 4.8 km/h 14.5 km/h 55% 0 mm
17:13 25 °C 14.8 °C 1013.8 hPa NNE 8 km/h 14.5 km/h 53% 0 mm
17:18 25.1 °C 14.6 °C 1013.8 hPa NE 8 km/h 11.3 km/h 52% 0 mm
17:23 25.2 °C 14.3 °C 1013.8 hPa NNW 12.9 km/h 12.9 km/h 51% 0 mm
17:28 25 °C 14.4 °C 1013.8 hPa NNW 8 km/h 11.3 km/h 52% 0 mm
17:33 24.8 °C 14.9 °C 1013.8 hPa NNE 9.7 km/h 11.3 km/h 54% 0 mm
17:38 24.7 °C 15.4 °C 1013.8 hPa North 4.8 km/h 11.3 km/h 56% 0 mm
17:43 24.8 °C 14.3 °C 1013.8 hPa NNW 8 km/h 9.7 km/h 52% 0 mm
17:48 24.7 °C 15.4 °C 1013.8 hPa North 1.6 km/h 11.3 km/h 56% 0 mm
17:53 25.1 °C 15.1 °C 1013.8 hPa NW 3.2 km/h 9.7 km/h 54% 0 mm
17:58 25.1 °C 14.3 °C 1013.8 hPa ENE 4.8 km/h 12.9 km/h 51% 0 mm
18:03 25.1 °C 14.8 °C 1013.8 hPa NNE 4.8 km/h 9.7 km/h 53% 0 mm
18:08 24.9 °C 14.4 °C 1013.8 hPa NNW 3.2 km/h 8 km/h 52% 0 mm
18:13 24.8 °C 14.6 °C 1013.8 hPa North 6.4 km/h 6.4 km/h 53% 0 mm
18:18 24.4 °C 14.8 °C 1013.8 hPa North 3.2 km/h 4.8 km/h 55% 0 mm
18:23 24.6 °C 15.5 °C 1013.8 hPa NNE 1.6 km/h 4.8 km/h 57% 0 mm
18:29 24.7 °C 14.5 °C 1013.4 hPa North 8 km/h 8 km/h 53% 0 mm
18:33 24.5 °C 15.4 °C 1013.8 hPa NNW 4.8 km/h 8 km/h 57% 0 mm
18:39 24.4 °C 15.1 °C 1013.4 hPa NNW 4.8 km/h 6.4 km/h 56% 0 mm
18:44 24.4 °C 15.7 °C 1013.4 hPa North 3.2 km/h 4.8 km/h 58% 0 mm
18:49 24.8 °C 15.4 °C 1013.4 hPa NW 1.6 km/h 3.2 km/h 56% 0 mm
18:54 24.9 °C 14.7 °C 1013.4 hPa NNE 4.8 km/h 12.9 km/h 53% 0 mm
18:59 24.8 °C 14.9 °C 1013.4 hPa NNW 3.2 km/h 11.3 km/h 54% 0 mm
19:04 24.8 °C 14.9 °C 1013.4 hPa North 6.4 km/h 14.5 km/h 54% 0 mm
19:09 24.7 °C 14.8 °C 1013.4 hPa NNW 4.8 km/h 9.7 km/h 54% 0 mm
19:14 24.6 °C 15.3 °C 1013.4 hPa NNW 6.4 km/h 6.4 km/h 56% 0 mm
19:19 24.7 °C 14.4 °C 1013.4 hPa North 4.8 km/h 9.7 km/h 53% 0 mm
19:24 24.6 °C 14.7 °C 1013.4 hPa North 6.4 km/h 9.7 km/h 54% 0 mm
19:29 24.5 °C 14.9 °C 1013.4 hPa North 1.6 km/h 8 km/h 55% 0 mm
19:34 24.4 °C 15.1 °C 1013.4 hPa North 3.2 km/h 6.4 km/h 56% 0 mm
19:39 24.4 °C 14.8 °C 1013.4 hPa North 1.6 km/h 6.4 km/h 55% 0 mm
19:44 24.4 °C 15.1 °C 1013.4 hPa North 3.2 km/h 6.4 km/h 56% 0 mm
19:49 24.2 °C 15.2 °C 1013.4 hPa NNW 3.2 km/h 4.8 km/h 57% 0 mm
19:54 24.1 °C 15.6 °C 1013.4 hPa North 3.2 km/h 3.2 km/h 59% 0 mm
19:59 23.8 °C 15.9 °C 1013.4 hPa NNW 1.6 km/h 3.2 km/h 61% 0 mm
20:04 23.5 °C 15.6 °C 1013.4 hPa NNW 3.2 km/h 3.2 km/h 61% 0 mm
20:09 23.3 °C 15.3 °C 1013.4 hPa NNE 3.2 km/h 4.8 km/h 61% 0 mm
20:14 22.9 °C 15.3 °C 1013.4 hPa NNW 1.6 km/h 3.2 km/h 62% 0 mm
20:19 22.6 °C 15.2 °C 1013.4 hPa NNW 1.6 km/h 1.6 km/h 63% 0 mm
20:24 22.4 °C 15.3 °C 1013.4 hPa NNW 1.6 km/h 1.6 km/h 64% 0 mm
20:29 22.2 °C 15.3 °C 1013.4 hPa Calm   1.6 km/h 65% 0 mm
20:34 21.8 °C 14.9 °C 1013.4 hPa NNW 1.6 km/h 1.6 km/h 65% 0 mm
20:39 21.6 °C 15.2 °C 1013.4 hPa Calm   1.6 km/h 67% 0 mm
20:44 21.3 °C 15.2 °C 1013.4 hPa NNW 1.6 km/h 1.6 km/h 68% 0 mm
20:49 21.1 °C 15 °C 1013.8 hPa NNW 1.6 km/h 1.6 km/h 68% 0 mm
20:54 20.9 °C 15.1 °C 1013.8 hPa NNW 1.6 km/h 1.6 km/h 69% 0 mm
20:59 20.7 °C 15.1 °C 1013.8 hPa Calm     70% 0 mm
21:04 20.4 °C 14.8 °C 1013.8 hPa Calm     70% 0 mm
21:09 20.2 °C 14.8 °C 1013.8 hPa Calm     71% 0 mm
21:14 20.1 °C 14.8 °C 1013.8 hPa Calm     72% 0 mm
21:19 20 °C 15 °C 1013.8 hPa Calm     73% 0 mm
21:24 19.9 °C 14.9 °C 1013.8 hPa Calm   1.6 km/h 73% 0 mm
21:29 19.6 °C 15.1 °C 1013.8 hPa Calm     75% 0 mm
21:34 19.3 °C 15.2 °C 1013.8 hPa Calm   1.6 km/h 77% 0 mm
21:39 19.2 °C 15.1 °C 1013.8 hPa NNW 1.6 km/h 1.6 km/h 77% 0 mm
21:44 19.1 °C 15.1 °C 1013.8 hPa NNW 1.6 km/h 1.6 km/h 78% 0 mm
21:49 19 °C 15.3 °C 1013.8 hPa NNW 1.6 km/h 3.2 km/h 79% 0 mm
21:55 19 °C 15.3 °C 1013.8 hPa NNW 1.6 km/h 3.2 km/h 79% 0 mm
22:00 19 °C 15.3 °C 1014.1 hPa NNW 1.6 km/h 3.2 km/h 79% 0 mm
22:05 18.9 °C 15 °C 1014.1 hPa NNW 1.6 km/h 1.6 km/h 78% 0 mm
22:10 18.8 °C 14.9 °C 1014.1 hPa Calm     78% 0 mm
22:15 18.8 °C 15.1 °C 1014.1 hPa Calm   1.6 km/h 79% 0 mm
22:20 18.8 °C 14.9 °C 1014.4 hPa Calm   1.6 km/h 78% 0 mm
22:25 18.7 °C 14.9 °C 1014.4 hPa Calm     79% 0 mm
22:30 18.4 °C 14.7 °C 1014.4 hPa Calm     79% 0 mm
22:35 18.3 °C 14.9 °C 1014.4 hPa NNW 1.6 km/h 1.6 km/h 81% 0 mm
22:40 18.4 °C 14.9 °C 1014.8 hPa NNW 1.6 km/h 1.6 km/h 80% 0 mm
22:45 18.3 °C 14.9 °C 1014.8 hPa Calm   1.6 km/h 81% 0 mm
22:50 18.2 °C 14.8 °C 1014.8 hPa NNW 1.6 km/h 1.6 km/h 81% 0 mm
22:55 18.2 °C 15.1 °C 1014.8 hPa Calm   1.6 km/h 82% 0 mm
23:00 18.2 °C 15.1 °C 1014.8 hPa Calm     82% 0 mm
23:05 18.1 °C 15 °C 1014.8 hPa Calm     82% 0 mm
23:10 18 °C 14.9 °C 1014.8 hPa Calm     82% 0 mm
23:15 17.9 °C 14.8 °C 1015.1 hPa Calm     82% 0 mm
23:20 17.9 °C 14.8 °C 1015.1 hPa Calm     82% 0 mm
23:25 17.8 °C 14.7 °C 1015.1 hPa Calm     82% 0 mm
23:30 17.5 °C 14.6 °C 1014.8 hPa Calm     83% 0 mm
23:35 17.2 °C 14.4 °C 1014.8 hPa Calm     84% 0 mm
23:40 16.8 °C 14.1 °C 1014.8 hPa Calm     84% 0 mm
23:45 16.5 °C 14.2 °C 1014.8 hPa Calm     86% 0 mm
23:50 16.2 °C 14.2 °C 1014.8 hPa Calm     88% 0 mm
23:55 15.9 °C 14.1 °C 1014.8 hPa Calm     89% 0 mm
Compliments of Weather Underground